User: anonymous   Login
Location: Newark
(47.5989°N, 4.6950°E)
Time: 19:43:46
(UTC+00:00)
Language:

Envisat - Orbit

View from above orbital plane
View from above orbital plane
View from above satellite
View from above satellite

Ground track
Ground track

The orbit data is extracted from the following two-line orbital elements,

1 27386U 02009A   19348.52000941  .00000009  00000-0  16354-4 0  9995
2 27386  98.1409   0.3181 0001330  89.9698  82.1267 14.37965826931895
Epoch (UTC): 14 December 2019 12:28:48
Eccentricity: 0.0001330
inclination: 98.1409°
perigee height: 764 km
apogee height: 766 km
right ascension of ascending node: 0.3181°
argument of perigee: 89.9698°
revolutions per day: 14.37965826
mean anomaly at epoch: 82.1267°
orbit number at epoch: 93189

The dashed part of the orbit path shows where the satellite is in the earth's shadow,  

DLR